Regional Weather Roundup
Issued by NWS

Home | Current Version | Previous Version | Graphics & Text | Print | Product List | Glossary On
Versions: 1 2 3 4 5 6 7 8 9 10 11 12 13 14 15 16 17 18 19 20 21 22 23 24 25 26 27 28 29 30 31 32 33 34 35 36 37 38 39 40 41 42 43 44 45 46 47 48 49 50
549
ASUS43 KDMX 301503
RWRIA

WEATHER ROUNDUP FOR IOWA
NATIONAL WEATHER SERVICE DES MOINES IA
1000 AM CDT SAT APR 30 2016

NOTE: "FAIR" INDICATES FEW OR NO CLOUDS BELOW 12,000 FEET WITH NO
SIGNIFICANT WEATHER AND/OR OBSTRUCTIONS TO VISIBILITY.

* - THESE STATIONS ARE NOT NWS STATIONS...THUS NOT UNDER NWS
QUALITY CONTROL.  THEY ALSO DO NOT REPORT WEATHER SUCH
AS PRECIPITATION OR FOG.

IAZ001>003-012>014-020>022-031>034-043>046-301600-
   NORTHWEST IOWA

CITY           SKY/WX    TMP DP  RH WIND       PRES   REMARKS
CARROLL *      RAIN      43  43 100 E17G23    29.80F
CHEROKEE *     RAIN      42  42  99 NE18G29   29.84F
DENISON *      LGT RAIN  43  43 100 E22G30    29.74F
LE MARS *      RAIN      43  41  93 NE21G31   29.83S
ORANGE CITY *  RAIN      43  39  87 E15G23    29.86S
SHELDON *      RAIN      43  41  93 E21G30    29.88R
SIOUX CITY     HVY RAIN  45  41  86 E14       29.81F FOG
SPENCER        RAIN      42  39  89 E20G28    29.91R FOG
STORM LAKE *   MIX PCPN  41  41 100 E30       29.83F
$$

IAZ055>058-069>071-079>083-090>094-301600-
   SOUTHWEST IOWA

CITY           SKY/WX    TMP DP  RH WIND       PRES   REMARKS
ATLANTIC *     RAIN      45  45 100 E16G26    29.72F
AUDUBON *      RAIN      43  41  93 NE16G24   29.77F
CLARINDA *       N/A    N/A N/A N/A MISG        N/A
COUNCIL BLFS * CLOUDY    46  46 100 NE10G18   29.70F
CRESTON *      LGT RAIN  46  46 100 E16G23    29.73F
HARLAN  *      LGT RAIN  45  45 100 E18G28    29.76R
LAMONI         LGT RAIN  48  47  96 E9G20     29.71S
RED OAK *      CLOUDY    48  46  93 E14G22    29.69F
SHENANDOAH *   CLOUDY    50  50 100 E15G22    29.67S
$$

IAZ047>049-059>061-072>074-084-301600-
   CENTRAL IOWA

CITY           SKY/WX    TMP DP  RH WIND       PRES   REMARKS
AMES           LGT RAIN  45  45 100 E14G20    29.81F FOG
ANKENY *       LGT RAIN  46  46 100 E13G21    29.79F
BOONE *        LGT RAIN  45  45 100 E22G29    29.80F
CHARITON *     CLOUDY    48  48 100 E15G21    29.74F FOG
DES MOINES     LGT RAIN  47  43  86 E14G23    29.76F FOG
GRINNELL*      HVY RAIN  45  43  93 NE16      29.83S
KNOXVILLE *    CLOUDY    46  46 100 E13G20    29.75F FOG
MARSHALLTOWN   RAIN      45  43  93 E23G31    29.83F FOG
NEWTON *       CLOUDY    45  45 100 E17G25    29.80F FOG
PELLA *        LGT RAIN  46  45  97 E13G21    29.79F
$$

IAZ004>006-015-016-023>025-035-036-301600-
   NORTH CENTRAL IOWA

CITY           SKY/WX    TMP DP  RH WIND       PRES   REMARKS
ALGONA *       DRIZZLE   43  43 100 E17G25    29.90S
CLARION *      CLOUDY    43  43 100 E22G30    29.87S FOG
ESTHERVILLE    LGT RAIN  42  40  92 E23G30    29.91F
FORT DODGE *   CLOUDY    43  37  81 E15       29.87R
MASON CITY     LGT RAIN  44  41  89 E21G28    29.93F FOG
FOREST CITY *  LGT RAIN  43  41  93 E13G24    29.92S
WEBSTER CITY * LGT RAIN  45  45 100 E24       29.83R
IOWA FALLS *   LGT RAIN  45  43  93 E24       29.86F
$$

IAZ007>011-017>019-026>030-037>042-050>054-066-301600-
   NORTHEAST IOWA

CITY           SKY/WX    TMP DP  RH WIND       PRES   REMARKS
CEDAR RAPIDS   RAIN      46  46 100 E20       29.85F FOG
CHARLES CITY * LGT RAIN  45  45 100 E22       29.94F
CLINTON *      LGT RAIN  48  46  93 E24G30    29.90F FOG
DECORAH *      CLOUDY    46  39  76 E20G25    29.97F
MONTICELLO *   CLOUDY    46  43  87 E16G24    29.90F
OELWEIN *      LGT RAIN  45  45 100 E23       29.93F
WATERLOO       LGT RAIN  45  42  89 E22       29.90F FOG
$$

IAZ064-065-067-068-078-301600-
   EAST CENTRAL IOWA

CITY           SKY/WX    TMP DP  RH WIND       PRES   REMARKS
DAVENPORT      LGT RAIN  48  45  89 E18       29.89F FOG
IOWA CITY      LGT RAIN  48  45  89 E14G25    29.87F FOG
MT. PLEASANT * LGT RAIN  52  52 100 E16       29.81F
MUSCATINE *    CLOUDY    48  46  93 E8G20     29.86S FOG
QUAD CITIES    LGT RAIN  49  45  86 E21       29.87F FOG
$$

IAZ062-063-075>077-085>089-095>099-301600-
   SOUTHEAST IOWA

CITY           SKY/WX    TMP DP  RH WIND       PRES   REMARKS
BURLINGTON     LGT RAIN  50  50 100 E15       29.80F FOG
FAIRFIELD *    LGT RAIN  48  46  93 E20       29.78F
FORT MADISON * RAIN      50  50 100 E17G23    29.77F
KEOKUK *       RAIN      52  52 100 E14G22    29.74F
OSKALOOSA *    LGT RAIN  46  46 100 E15G21    29.79F
OTTUMWA        LGT RAIN  47  46  97 E18       29.77F FOG
WASHINGTON *   LGT RAIN  48  48 100 E16       29.84F VSB 1
$$

ABBREVIATIONS USED IN REMARKS
   TC - TEMPERATURES IN CELSIUS
  WCI - WIND CHILL INDEX
   HX - HEAT INDEX
  VSB - VISIBILITY
$$





USA.gov is the U.S. government's official web portal to all federal, state and local government web resources and services.